Location: Leipzig
(51.3397°N, 12.3731°E)
Time: 18:39:07
(UTC+01:00)

ARIANE 6 FM1 Upper Stage - Pass Details

Date: 14 December 2025
Orbit: 522 x 610 km, 62.0° (Epoch: 19 January)

Event Time Altitude Azimuth Distance (km) Brightness Sun altitude
Rises 05:55:25 0° 177° (S) 2,686 6.4 -19.4°
Reaches altitude 10° 05:58:24 10° 153° (SSE) 1,784 5.8 -19.0°
Maximum altitude 06:00:41 15° 118° (ESE) 1,489 5.9 -18.6°
Drops below altitude 10° 06:02:58 10° 83° (E) 1,774 6.3 -18.3°
Sets 06:05:54 0° 60° (ENE) 2,661 6.8 -17.8°
